This is the latest recevied weather packets stored in our database for station/object WX5HOT. If no packets are shown the sender has not sent any weather packets the latest 1 day(s).
| Time | Temp. | Humidity | Pressure | Rain* | Wind** | Luminosity | Snow |
|---|---|---|---|---|---|---|---|
| 1778060877 | 12.22° C | 99% | 1059.9 hPa | 0 mm | - | 0 W/m² | - |
| 1778060274 | 12.22° C | 99% | 1059.6 hPa | 0 mm | - | 0 W/m² | - |
| 1778059063 | 11.67° C | 99% | 1059.6 hPa | 0 mm | - | 0 W/m² | - |
| 1778058155 | 11.67° C | 99% | 1059.2 hPa | 0 mm | - | 0 W/m² | - |
| 1778057852 | 12.22° C | 99% | 1059.2 hPa | 0 mm | - | 0 W/m² | - |
| 1778057245 | 12.22° C | 99% | 1059.1 hPa | 0 mm | - | 0 W/m² | - |
| 1778056941 | 12.78° C | 99% | 1058.8 hPa | 0 mm | - | 0 W/m² | - |
| 1778056638 | 12.78° C | 99% | 1059 hPa | 0 mm | - | 0 W/m² | - |
| 1778056336 | 12.78° C | 99% | 1059.4 hPa | 0 mm | - | 0 W/m² | - |
| 1778056033 | 13.33° C | 99% | 1059.6 hPa | 0 mm | - | 0 W/m² | - |
| 1778055124 | 13.89° C | 99% | 1059.4 hPa | 36.58 mm | - | 0 W/m² | - |
| 1778054821 | 13.33° C | 99% | 1059.2 hPa | 41.4 mm | - | 0 W/m² | - |
| 1778054518 | 12.78° C | 99% | 1060.8 hPa | 0 mm | - | 0 W/m² | - |
| 1778054216 | 12.78° C | 99% | 1059.1 hPa | 0 mm | - | 0 W/m² | - |
| 1778053912 | 12.78° C | 99% | 1059.1 hPa | 0 mm | - | 0 W/m² | - |
| 1778053610 | 12.78° C | 99% | 1059 hPa | 0 mm | - | 0 W/m² | - |
| 1778052702 | 13.33° C | 99% | 1058.2 hPa | 73.15 mm | - | 0 W/m² | - |
| 1778052398 | 13.89° C | 98% | 1060.7 hPa | 9.65 mm | - | 0 W/m² | - |
| 1778052096 | 13.89° C | 98% | 1057.1 hPa | 1.78 mm | - | 0 W/m² | - |
| 1778051793 | 13.89° C | 98% | 1056.6 hPa | 0 mm | - | 0 W/m² | - |
| 1778051491 | 14.44° C | 98% | 1057.1 hPa | 0 mm | - | 0 W/m² | - |
| 1778050885 | 15° C | 98% | 1057.8 hPa | 0 mm | - | 0 W/m² | - |
| 1778050583 | 15° C | 98% | 1058 hPa | 0 mm | - | 0 W/m² | - |
| 1778050279 | 15° C | 98% | 1058.2 hPa | 0 mm | - | 0 W/m² | - |
| 1778049976 | 15° C | 98% | 1058.4 hPa | 0 mm | - | 0 W/m² | - |
* Rain latest hour (hover to see other rain measurements)
** Current wind speed in m/s (hover to see current wind gust speed)